Powrót do katalogu

FENGYUN 1C DEB

AktywnyPO
NORAD 31372·DEBRIS·🇨🇳 China

Wystrzelony May 10, 1999 z Taiyuan Satellite Launch Center

Loading…

Następne Przeloty (najbliższe 24 godziny)

TLE

ŚwieżeSource: Space-Track

Epoka: Sep 14, 2026, 08:07 UTC

1 31372U 99025BSC 26257.33831838  .00001904  00000-0  77725-3 0  9995
2 31372  99.3790 273.3790 0032095  10.2170 349.9655 14.28386518997839

Śledź FENGYUN 1C DEB w czasie rzeczywistym z AllMySat

Download on the App Store